"Pseudo-MPEC" for A10Dxk0

Created 2021 Nov 30 19:07:02 UT using Find_Orb

Click here for an explanation of pseudo-MPECs

 
 Astrometry: 
     A10Dxk0  C2021 11 25.51876506 02 59.28 +31 27 19.9    ~BPJM 18.46oVNEOCPT05
     A10Dxk0  C2021 11 25.52486106 02 57.09 +31 29 38.4    ~BPJM 18.22oVNEOCPT05
     A10Dxk0  C2021 11 25.53522806 02 53.44 +31 33 27.9    ~BPJM 18.44oVNEOCPT05

Station data:
(T05) ATLAS-HKO, Haleakala  (N20.707573 W156.257010)  US/Hawaii.  Observers
   L. Denneau, A. Heinze, H. Weiland, J. Tonry, H. Flewelling, A.
   Fitzsimmons, D. Young, B. Stalder. Measurers L. Denneau, A. Heinze, J.
   Tonry. 0.5-m f/2.0 Schmidt + CCD.

Orbital elements:  A10Dxk0
   Perihelion 2022 Jan 22.618121 +/- 40.7501 TT = 14:50:05 (JD 2459602.118121)
Epoch 2021 Nov 26.0 TT = JDT 2459544.5   Earth MOID: 0.0106   AutoNEOCP
M 304.62811124 +/- 38.506827        (J2000 ecliptic)
n   0.96101517 +/- 0.536552         Peri.   58.19867 +/- 73.249443
a   1.01698813 +/- 0.378528         Node    62.61190 +/- 32.208368
e   0.0117317 +/- 0.269879          Incl.    9.54065 +/- 20.875461
P   1.03/374.60d           H 25.1   G  0.15   U 12.3  SR
q 1.00505713 +/- 0.328084    Q 1.02891913 +/- 18.5372
From 3 observations 2021 Nov. 25 (23.7 min); mean residual 0".68
Residuals in arcseconds: 
211125 T05  .13+  .83-    211125 T05  .21-  1.3+    211125 T05  .08+  .49-    

Ephemerides (geocentric):
Date (UTC) HH   RA              Dec         delta   r     elong  mag " sig PA
---- -- -- --  -------------   -----------  ------ ------ -----  --- ---- ---
2021 11 30 19  05 33 56.304   +60 53 48.95  .03059 1.0095 139.1 19.1  42d 141
2021 11 30 20  05 33 34.537   +61 05 03.90  .03065 1.0095 139.0 19.1  42d 141
2021 11 30 21  05 33 12.589   +61 16 15.78  .03071 1.0095 138.8 19.1  42d 140
2021 11 30 22  05 32 50.456   +61 27 24.59  .03077 1.0095 138.7 19.1  42d 140
2021 11 30 23  05 32 28.138   +61 38 30.31  .03083 1.0095 138.6 19.1  42d 140
2021 12 01 00  05 32 05.632   +61 49 32.97  .03090 1.0095 138.4 19.1  42d 139
2021 12 01 01  05 31 42.936   +62 00 32.54  .03096 1.0095 138.3 19.1  41d 139
2021 12 01 02  05 31 20.048   +62 11 29.04  .03102 1.0095 138.2 19.1  41d 139
2021 12 01 03  05 30 56.967   +62 22 22.47  .03109 1.0095 138.0 19.1  41d 138
2021 12 01 04  05 30 33.690   +62 33 12.81  .03115 1.0095 137.9 19.2  41d 138
2021 12 01 05  05 30 10.215   +62 44 00.08  .03122 1.0094 137.7 19.2  41d 138
2021 12 01 06  05 29 46.540   +62 54 44.28  .03128 1.0094 137.6 19.2  41d 137
2021 12 01 07  05 29 22.663   +63 05 25.40  .03134 1.0094 137.5 19.2  41d 137
2021 12 01 08  05 28 58.582   +63 16 03.45  .03141 1.0094 137.3 19.2  41d 137
2021 12 01 09  05 28 34.294   +63 26 38.42  .03148 1.0094 137.2 19.2  41d 136
2021 12 01 10  05 28 09.798   +63 37 10.33  .03154 1.0094 137.1 19.2  41d 136
2021 12 01 11  05 27 45.092   +63 47 39.17  .03161 1.0094 136.9 19.2  41d 135
2021 12 01 12  05 27 20.173   +63 58 04.93  .03168 1.0094 136.8 19.2  41d 135
2021 12 01 13  05 26 55.038   +64 08 27.64  .03174 1.0094 136.7 19.2  41d 135
2021 12 01 14  05 26 29.687   +64 18 47.28  .03181 1.0094 136.5 19.2  40d 134
2021 12 01 15  05 26 04.115   +64 29 03.86  .03188 1.0094 136.4 19.2  40d 134
2021 12 01 16  05 25 38.321   +64 39 17.38  .03195 1.0094 136.3 19.2  40d 133
2021 12 01 17  05 25 12.303   +64 49 27.85  .03201 1.0094 136.1 19.3  40d 133
2021 12 01 18  05 24 46.058   +64 59 35.27  .03208 1.0094 136.0 19.3  40d 133
2021 12 01 19  05 24 19.584   +65 09 39.63  .03215 1.0094 135.9 19.3  40d 132
2021 12 01 20  05 23 52.878   +65 19 40.95  .03222 1.0093 135.7 19.3  40d 132
2021 12 01 21  05 23 25.938   +65 29 39.22  .03229 1.0093 135.6 19.3  40d 132
2021 12 01 22  05 22 58.761   +65 39 34.46  .03236 1.0093 135.5 19.3  40d 131
2021 12 01 23  05 22 31.345   +65 49 26.65  .03243 1.0093 135.3 19.3  40d 131
2021 12 02 00  05 22 03.687   +65 59 15.82  .03250 1.0093 135.2 19.3  40d 130
2021 12 02 01  05 21 35.784   +66 09 01.95  .03257 1.0093 135.1 19.3  40d 130
2021 12 02 02  05 21 07.635   +66 18 45.06  .03264 1.0093 134.9 19.3  40d 130
2021 12 02 03  05 20 39.235   +66 28 25.15  .03271 1.0093 134.8 19.3  39d 129
2021 12 02 04  05 20 10.583   +66 38 02.22  .03278 1.0093 134.7 19.3  39d 129
2021 12 02 05  05 19 41.676   +66 47 36.28  .03286 1.0093 134.5 19.4  39d 128
2021 12 02 06  05 19 12.510   +66 57 07.33  .03293 1.0093 134.4 19.4  39d 128
2021 12 02 07  05 18 43.084   +67 06 35.37  .03300 1.0093 134.3 19.4  39d 128
2021 12 02 08  05 18 13.394   +67 16 00.41  .03307 1.0093 134.1 19.4  39d 127
2021 12 02 09  05 17 43.437   +67 25 22.46  .03315 1.0093 134.0 19.4  39d 127
2021 12 02 10  05 17 13.210   +67 34 41.52  .03322 1.0093 133.9 19.4  39d 127
2021 12 02 11  05 16 42.711   +67 43 57.59  .03329 1.0092 133.8 19.4  39d 126
2021 12 02 12  05 16 11.937   +67 53 10.67  .03337 1.0092 133.6 19.4  39d 126
2021 12 02 13  05 15 40.884   +68 02 20.78  .03344 1.0092 133.5 19.4  39d 125
2021 12 02 14  05 15 09.549   +68 11 27.92  .03352 1.0092 133.4 19.4  39d 125
2021 12 02 15  05 14 37.930   +68 20 32.09  .03359 1.0092 133.3 19.4  39d 125
2021 12 02 16  05 14 06.023   +68 29 33.30  .03367 1.0092 133.1 19.4  39d 124
2021 12 02 17  05 13 33.825   +68 38 31.55  .03374 1.0092 133.0 19.5  38d 124
2021 12 02 18  05 13 01.332   +68 47 26.85  .03382 1.0092 132.9 19.5  38d 124